Starlink 31314

operational
NORAD ID: 58967 Int'l Des: 2024-031 Owner: SPXS Country: US Constellation: starlink
LEOCIRCULAR

关于 Starlink 31314

正在加载描述...

实时位置

正在加载3D地球...

即将过境

高度历史

Altitude vs Time

uPlot chart will show altitude changes over time

两行轨道根数

1 58967U 24031C 25305.65229596 .00002066 00000-0 81868-4 0 9993
2 58967 53.1584 171.1677 0001224 94.6697 265.4443 15.30193257 96934
Epoch: Nov 1, 2025 • Age: 24 hours

当前状态

高度 481.0 km
速度 7.63 km/s
星下点 -19.86°S, 78.98°E
发射日期 Feb 15, 2024
运行时间 1.7 years
类型 internet

技术详情

分类 Payload
质量 730.00 kg
干质量 700.00 kg
总质量 730.00 kg
长度 0.30 m
直径 4.10 m
跨度 29.00 m
形状 Box + pan
制造商 SPXS
平台类型 Starlink V2M
阶段状态 In Orbit
所有者/国家 SPXS/US

大型星座

Loading constellations...